Regional Weather Roundup
Issued by NWS Midland/Odessa, TX

Skip options and go directly to product.
Home | Oldest Version | Next Version | Current Version | All | Text Only | Save Text | Print | Product List | Glossary On

Skip product version selection by date and time.   
959
ASUS44 KMAF 162202
RWRMAF
MIDLAND AREA WEATHER ROUNDUP
NATIONAL WEATHER SERVICE MIDLAND TX
500 PM CDT TUE SEP 16 2014

...IN SOUTHWEST TEXAS AND SOUTHEAST NEW MEXICO...

CITY           SKY/WX    TMP DP  RH WIND       PRES   REMARKS
ALPINE         MOSUNNY   79  58  49 E10       30.21F
ANDREWS        LGT RAIN  77  64  63 CALM      30.13F
ARTESIA        NOT AVBL
BIG SPRING     CLOUDY    82  66  58 E9        30.11F
CARLSBAD       PTSUNNY   78  68  71 E3        30.12F
DRYDEN           N/A     89  63  41 SE12      30.02F
FORT STOCKTON  MOSUNNY   81  62  52 SE10      30.09F
GUAD PASS      PTSUNNY   72  60  66 NE18      30.24F
HOBBS          SUNNY     70  68  94 NW3       30.17F
MARFA          MOSUNNY   79  57  47 E8        30.19F
MIDLAND AIRPK  CLOUDY    83  63  51 CALM      30.10F
MIDLAND INTL   CLOUDY    82  62  50 CALM      30.09F
ODESSA         CLOUDY    83  61  47 SE8       30.10F
PECOS          MOSUNNY   84  60  43 SE6       30.07F
PRESIDIO       FAIR      88  60  38 E5        30.02F
SEMINOLE       CLOUDY    73  65  76 NW7       30.15F
SNYDER         CLOUDY    79  68  68 NE8       30.10S
WINK           PTSUNNY   84  60  44 SE8       30.07F
$$
...OTHER STATIONS IN TEXAS...

CITY           SKY/WX    TMP DP  RH WIND       PRES   REMARKS
ABILENE        PTSUNNY   88  63  43 CALM      30.04F
AMARILLO       CLOUDY    77  63  61 SE7       30.13F
AUSTIN         MOSUNNY   94  70  45 E12       29.93F HX 100
BROWNSVILLE    SUNNY     90  74  59 SE12      29.91F
CORPUS CHRISTI PTSUNNY   88  77  69 SE13      29.91F HX 100
DALLAS FTW     PTSUNNY   90  66  45 CALM      29.99F
DEL RIO        MOSUNNY   90  69  50 SE9       29.94F
EL PASO        CLOUDY    79  62  56 E8        30.09F
HOUSTON INT    PTSUNNY   80  72  76 S10       29.98S
LUBBOCK        CLOUDY    73  63  70 SE10      30.15S THUNDER
SAN ANGELO     MOSUNNY   89  66  46 VRB5      30.03F
SAN ANTONIO    PTSUNNY   90  70  51 SE17      29.95F
WACO           CLOUDY    85  69  58 NE7       29.98F
WICHITA FALLS  NOT AVBL
$$
...OTHER LOCATIONS IN NEW MEXICO...

CITY           SKY/WX    TMP DP  RH WIND       PRES   REMARKS
ALAMAGORDO     CLOUDY    72  64  78 NW7       30.16F
ALBUQUERQUE    CLOUDY    72  55  55 SW9       30.21F
CANNON AFB     CLOUDY    73  60  63 SW14      30.18F
CLOVIS           N/A     75  59  57 SW15      30.19F
HOLLOMAN AFB   DRIZZLE   70  66  88 W6        30.15S
ROSWELL        LGT RAIN  68  66  93 S5        30.16F FOG
RUIDOSO        LGT RAIN  59  57  94 SE6       30.34S
SANTA FE       PTSUNNY   76  49  38 W10G17    30.24F
TRUTH OR CONSE LGT RAIN  67  63  87 CALM      30.19F
TUCUMCARI      CLOUDY    78  58  49 SW13G21   30.13F
$$

USA.gov is the U.S. government's official web portal to all federal, state and local government web resources and services.